Flag for U.S.A. Weather past 2 weeks in Lakewood, New Jersey, U.S.A.

Now
70 °F

Clear.


Feels Like: 70 °F
Forecast: 60 / 82 °F
Wind: 6 mph from Southwest

Location: Belmar-Farmdale

Current Time: Jul 30, 2014 at 11:36:28 PM

Latest Report: Jul 30, 2014 at 10:55 PM


Visibility: 10 mi

Pressure: 30.06 "Hg

Humidity: 60%

Dew point: 55 °F

Location of LakewoodLocation

Historic Weather in Lakewood — Graph

°F

Lakewood temperature yesterday

Maximum temperature yesterday: 75 °F (at 12:55 PM)
Minimum temperature yesterday: 61 °F (at 5:35 AM)
Average temperature yesterday: 69 °F

Past Weeks' High & Low Weather Summary

 TemperatureHumidityPressure
High90 °F (Jul 27, 3:55 PM)89% (Jul 27, 7:55 AM)30.25 "Hg (Jul 27, 7:55 AM)
Low61 °F (Jul 18, 3:15 AM)32% (Jul 18, 1:35 PM)29.55 "Hg (Jul 28, 4:15 AM)
Average72 °F67%29.97 "Hg
* Reported Jul 15 10:15 PM — Jul 30 10:35 PM, Lakewood, Weather by CustomWeather, © 2014

Note: Actual official high and low records may vary slightly from our data, if they occured in-between our weather recording intervals... More about our weather records

Advertising

Lakewood weather history for previous 24 hours

 ConditionsComfort  
Time TempWeatherWind HumidityBarometerVisibility
10:35 PM
Jul 30
68 °FClear.6 mph69%30.06 "Hg10 mi
10:15 PM68 °FClear.5 mph69%30.06 "Hg10 mi
9:55 PM70 °FClear.5 mph64%30.06 "Hg10 mi
9:35 PM70 °FClear.3 mph64%30.06 "Hg10 mi
9:15 PM70 °FClear.3 mph64%30.06 "Hg10 mi
8:55 PM70 °FSunny.3 mph64%30.05 "Hg10 mi
8:35 PM72 °FSunny.5 mph61%30.04 "Hg10 mi
7:55 PM72 °FSunny.7 mph61%30.04 "Hg10 mi
7:35 PM72 °FSunny.7 mph61%30.03 "Hg10 mi
7:15 PM73 °FSunny.7 mph53%30.03 "Hg10 mi
6:55 PM73 °FSunny.8 mph57%30.03 "Hg10 mi
6:35 PM73 °FSunny.7 mph57%30.02 "Hg10 mi
6:15 PM75 °FSunny.8 mph54%30.02 "Hg10 mi
5:55 PM75 °FSunny.7 mph50%30.02 "Hg10 mi
5:35 PM75 °FSunny.7 mph50%30.02 "Hg10 mi
4:55 PM75 °FPassing clouds.8 mph47%30.03 "Hg10 mi
4:35 PM77 °FPassing clouds.9 mph44%30.03 "Hg10 mi
4:15 PM77 °FScattered clouds.5 mph44%30.02 "Hg10 mi
3:55 PM79 °FScattered clouds.6 mph37%30.02 "Hg10 mi
3:35 PM79 °FSunny.5 mph34%30.02 "Hg10 mi
3:15 PM79 °FSunny.7 mph34%30.02 "Hg10 mi
2:55 PM79 °FSunny.7 mph37%30.02 "Hg10 mi
2:35 PM79 °FSunny.9 mph37%30.02 "Hg10 mi
1:55 PM79 °FSunny.8 mph39%30.03 "Hg10 mi
1:35 PM79 °FSunny.3 mph37%30.03 "Hg10 mi
1:15 PM77 °FSunny.5 mph39%30.03 "Hg10 mi
12:55 PM77 °FSunny.5 mph39%30.03 "Hg10 mi
12:35 PM77 °FSunny.7 mph36%30.04 "Hg10 mi
12:15 PM75 °FSunny.8 mph39%30.04 "Hg10 mi
11:55 AM75 °FSunny.8 mph44%30.04 "Hg10 mi
11:35 AM75 °FSunny.9 mph44%30.04 "Hg10 mi
11:15 AM75 °FSunny.6 mph44%30.04 "Hg10 mi
10:55 AM73 °FSunny.No wind50%30.05 "Hg10 mi
10:35 AM73 °FSunny.5 mph50%30.04 "Hg10 mi
10:15 AM72 °FSunny.7 mph53%30.04 "Hg10 mi
9:55 AM72 °FSunny.6 mph53%30.04 "Hg10 mi
9:35 AM70 °FSunny.6 mph57%30.04 "Hg10 mi
9:15 AM70 °FSunny.5 mph57%30.04 "Hg10 mi
8:55 AM66 °FSunny.6 mph60%30.04 "Hg10 mi
8:35 AM66 °FSunny.6 mph64%30.04 "Hg10 mi
8:15 AM64 °FSunny.6 mph68%30.04 "Hg10 mi
7:55 AM63 °FPassing clouds.5 mph73%30.03 "Hg10 mi
7:35 AM63 °FPartly sunny.6 mph73%30.03 "Hg10 mi
7:15 AM61 °FPartly sunny.5 mph77%30.03 "Hg10 mi
6:55 AM61 °FOvercast.6 mph72%30.02 "Hg10 mi
6:35 AM61 °FOvercast.5 mph72%30.02 "Hg10 mi
6:15 AM61 °FPassing clouds.No wind77%30.01 "Hg10 mi
5:55 AM61 °FOvercast.3 mph72%30.00 "Hg10 mi
5:35 AM63 °FOvercast.5 mph68%30.00 "Hg10 mi
5:15 AM63 °FPassing clouds.5 mph73%29.99 "Hg10 mi
4:55 AM63 °FPassing clouds.5 mph73%29.99 "Hg10 mi
4:35 AM63 °FOvercast.No wind73%29.98 "Hg10 mi
4:15 AM63 °FOvercast.No wind73%29.97 "Hg10 mi
3:55 AM63 °FOvercast.No wind73%29.97 "Hg10 mi
3:35 AM63 °FOvercast.No wind73%29.97 "Hg10 mi
3:15 AM63 °FOvercast.5 mph73%29.96 "Hg10 mi
2:55 AM63 °FOvercast.No wind73%29.97 "Hg10 mi
2:35 AM64 °FOvercast.6 mph68%29.97 "Hg10 mi
2:15 AM64 °FOvercast.5 mph68%29.98 "Hg10 mi
1:55 AM64 °FOvercast.3 mph68%29.98 "Hg10 mi
1:35 AM64 °FOvercast.3 mph68%29.98 "Hg10 mi
1:15 AM64 °FOvercast.3 mph68%29.98 "Hg10 mi
12:55 AM64 °FOvercast.5 mph68%29.98 "Hg10 mi
12:35 AM64 °FOvercast.5 mph73%29.98 "Hg10 mi
12:15 AM64 °FOvercast.6 mph73%29.99 "Hg10 mi
11:55 PM
Jul 29
66 °FOvercast.3 mph68%29.98 "Hg10 mi
11:35 PM64 °FOvercast.No wind73%29.98 "Hg10 mi
Weather by CustomWeather, © 2014

See weather overviewHow to use our weather pages